Powrót do katalogu

SL-12 DEB

LostHEO
NORAD 43526·DEBRIS·🇷🇺 Russia

Wystrzelony Mar 1, 2010 z Baikonur Cosmodrome

Loading…

Następne Przeloty (najbliższe 24 godziny)

TLE

NieaktualneSource: Space-Track

Epoka: May 2, 2019, 22:04 UTC

1 43526U 10007Y   19122.91970341  .00319504  00000-0  81965-1 0  9999
2 43526  65.2223  51.7766 5751711  33.2438 352.2901  4.39898364 13936

Śledź SL-12 DEB w czasie rzeczywistym z AllMySat

Download on the App Store